Temp
62 62 62 62 62 63 63 63 63 63 63 63 63 63 63 63 63 64 73 83 80 81 83 81 84 81 79 73 75 73 64 63 68 68 70 79 75 81 81 75 76 77 73 74 75
62 62 62 62 62 62 62 62 62 62 62 62 63 63 63 63 62 69 82 83 82 82 81 79 77 78 70 71 71 66 62 70 80 77 72 77 76 76 74 72 69 69 72 73 73
62 62 61 62 62 62 62 62 62 62 62 62 62 63 63 62 67 79 83 82 82 83 85 85 82 78 70 70 70 71 69 76 81 82 81 77 75 78 72 67 69 68 69 71 71
61 61 61 61 61 61 62 62 61 61 61 62 62 63 63 60 67 81 82 82 82 83 85 83 80 73 68 67 74 67 76 78 79 81 79 75 78 73 73 73 76 73 72 72 70
61 61 61 61 61 61 61 61 60 60 61 62 63 64 59 62 74 81 83 82 81 81 80 81 75 73 68 71 74 70 74 81 81 81 79 79 75 73 74 75 76 74 73 70 70
60 60 60 60 60 61 61 60 60 60 61 62 63 64 58 61 81 79 80 79 79 80 79 82 78 79 74 73 71 76 77 78 81 79 80 76 74 76 73 75 72 72 70 71 71
60 60 60 60 60 60 59 59 59 60 61 62 63 65 60 70 80 78 78 74 78 80 78 84 83 77 77 73 79 77 73 78 79 79 78 78 71 71 74 75 71 71 71 71 72
60 60 60 60 59 59 58 58 58 60 62 62 64 58 63 74 77 78 78 76 81 81 81 83 85 79 77 78 78 71 68 63 74 79 80 77 61 72 74 72 70 71 72 73 73
59 59 59 59 59 58 57 57 60 62 64 64 55 56 65 77 74 79 78 79 76 77 83 91 82 73 75 68 64 65 59 64 68 77 75 72 63 72 74 72 70 71 72 73 73
59 59 59 58 58 57 56 57 63 62 64 67 71 58 68 72 73 77 76 82 77 77 78 77 71 65 63 62 54 60 60 64 62 69 71 67 66 70 72 72 71 71 73 73 74
59 58 58 58 57 56 52 54 59 56 55 63 62 66 72 77 78 72 79 80 77 73 64 70 62 58 64 67 69 66 64 63 67 72 68 66 65 68 70 72 71 70 72 73 75
58 58 58 57 56 55 52 55 61 62 58 67 67 68 70 72 71 74 81 74 71 64 68 63 60 69 71 70 69 65 62 62 68 71 67 64 64 68 69 71 73 73 72 73 75
58 58 57 56 55 50 49 58 61 60 54 65 65 66 68 75 70 70 78 73 69 65 66 60 66 75 72 68 66 62 61 64 64 68 67 64 60 64 68 70 72 77 77 76 75
58 57 56 54 53 48 55 59 59 62 50 59 59 69 71 73 67 78 79 77 68 66 66 64 72 74 68 67 68 60 70 71 69 62 53 61 49 58 62 64 69 72 75 75 75
57 57 55 55 45 51 60 55 56 63 43 66 62 75 67 71 71 71 75 75 68 68 67 64 69 68 67 67 71 65 71 70 66 57 55 54 51 56 59 60 64 70 73 74 74
57 56 55 49 50 50 53 56 62 53 45 61 66 64 62 62 66 70 73 74 73 68 65 69 75 74 72 73 74 72 66 61 55 52 47 51 52 54 56 61 65 69 72 74 74
55 54 53 55 54 53 54 61 52 44 63 60 59 62 60 61 63 64 66 64 61 55 56 63 66 73 75 68 71 65 56 46 46 45 45 48 49 56 64 68 69 69 72 73 73
53 52 51 53 49 53 58 57 41 56 55 62 62 59 60 62 62 62 61 58 58 61 54 55 55 68 72 68 63 59 57 48 44 44 46 49 48 58 68 71 72 72 74 76 73
52 44 45 48 53 50 58 46 49 53 61 62 60 56 54 59 62 59 59 59 63 63 60 52 55 68 71 68 71 59 55 59 50 45 45 50 55 64 67 67 70 71 72 72 74
44 44 50 51 54 55 54 46 50 59 63 60 52 56 54 59 58 57 57 63 64 67 63 62 52 64 72 73 70 65 65 53 48 46 43 50 50 53 62 67 69 69 70 71 72
44 51 55 50 52 57 48 48 55 62 64 59 55 55 55 58 58 55 59 64 68 66 64 56 56 59 63 62 62 61 55 52 52 48 46 44 50 59 64 68 68 70 72 72 73
41 52 55 53 53 42 47 52 58 58 62 62 59 59 57 60 55 56 62 65 72 66 62 62 55 52 60 64 67 66 61 57 52 48 45 47 54 68 66 68 70 71 69 73 72
42 43 56 57 47 44 47 54 58 58 59 60 59 62 63 57 53 60 62 70 70 68 64 64 53 47 52 59 61 60 63 55 53 50 46 48 56 68 63 66 70 70 71 71 71
44 49 52 52 46 48 48 51 54 64 63 63 61 59 57 55 56 58 62 68 69 66 71 69 51 56 57 57 59 58 63 61 57 50 50 52 62 70 66 65 68 69 70 71 71
44 45 48 47 48 46 47 51 55 54 59 58 56 57 57 51 52 54 59 62 67 67 61 62 57 55 61 63 64 64 64 63 59 64 57 66 56 67 71 66 70 71 71 70 70
43 44 46 43 44 48 45 46 53 55 54 54 56 58 57 52 54 55 55 53 54 62 57 56 55 50 57 60 64 63 65 62 62 59 60 59 60 70 71 66 66 67 69 70 70
43 44 46 44 44 46 46 50 56 54 58 61 61 57 58 58 60 57 59 58 55 53 56 54 53 50 50 55 59 53 62 63 63 62 64 58 66 66 66 67 68 68 69 70 72
MSLP
1016.31 1016.02 1015.70 1015.38 1015.03 1014.63 1014.27 1013.95 1013.53 1013.08 1012.56 1012.17 1012.02 1012.01 1011.60 1011.23 1010.87 1010.61 1009.31 1007.27 1007.51 1007.99 1008.28 1008.82 1008.95 1009.33 1009.71 1010.32 1010.52 1010.51 1010.49 1010.12 1009.43 1009.05 1008.88 1008.93 1009.23 1009.79 1010.21 1010.77 1011.41 1011.91 1012.44 1012.85 1014.17
1016.17 1015.92 1015.61 1015.33 1014.98 1014.60 1014.20 1013.86 1013.50 1013.07 1012.59 1012.09 1012.01 1012.00 1011.55 1011.08 1010.94 1009.58 1006.71 1006.61 1007.14 1007.68 1008.31 1008.53 1008.92 1009.42 1009.96 1010.41 1010.49 1010.43 1010.14 1009.35 1008.50 1008.07 1008.41 1008.84 1009.32 1009.74 1010.42 1011.17 1012.03 1012.70 1013.19 1013.58 1014.43
1016.14 1015.77 1015.54 1015.28 1014.91 1014.52 1014.07 1013.76 1013.42 1013.08 1012.59 1012.12 1011.86 1011.78 1011.51 1011.06 1010.29 1007.34 1006.11 1006.58 1007.06 1007.52 1007.98 1008.39 1008.71 1009.17 1009.83 1010.32 1010.40 1009.99 1009.43 1008.98 1008.05 1007.80 1007.95 1008.85 1009.59 1009.88 1010.51 1011.34 1011.66 1012.44 1013.32 1014.10 1014.65
1016.18 1015.79 1015.52 1015.13 1014.78 1014.44 1013.99 1013.54 1013.24 1013.01 1012.59 1012.09 1011.74 1011.56 1011.18 1010.95 1009.18 1006.50 1006.41 1006.70 1007.23 1007.59 1008.10 1008.41 1008.70 1009.16 1009.67 1010.03 1009.94 1009.70 1008.96 1008.50 1007.91 1007.82 1008.33 1008.77 1009.31 1010.07 1010.46 1010.62 1010.74 1012.10 1012.83 1013.74 1014.43
1016.24 1015.90 1015.42 1014.97 1014.54 1014.24 1013.91 1013.48 1013.13 1012.81 1012.56 1012.09 1011.60 1011.44 1010.90 1010.18 1007.80 1006.28 1006.54 1007.12 1007.76 1008.07 1008.27 1008.19 1008.70 1009.05 1009.43 1009.57 1009.53 1009.22 1008.64 1007.99 1007.22 1007.58 1008.34 1008.87 1009.35 1010.05 1010.72 1010.87 1011.38 1012.39 1013.38 1013.79 1014.34
1016.13 1015.83 1015.42 1014.94 1014.50 1014.01 1013.63 1013.27 1012.92 1012.67 1012.46 1012.04 1011.57 1011.44 1010.98 1009.32 1006.61 1006.43 1006.55 1007.44 1007.66 1007.99 1008.38 1008.20 1008.44 1008.60 1008.99 1009.14 1008.99 1008.83 1008.36 1007.73 1007.58 1007.98 1008.42 1008.91 1009.63 1010.03 1010.95 1011.30 1012.01 1012.62 1013.02 1013.55 1014.07
1016.02 1015.65 1015.30 1014.96 1014.58 1014.07 1013.52 1012.94 1012.61 1012.34 1012.21 1011.97 1011.57 1011.40 1010.57 1007.93 1006.89 1006.84 1007.01 1007.35 1007.37 1007.74 1008.28 1008.23 1008.22 1008.39 1008.69 1008.86 1008.78 1008.60 1008.31 1007.87 1007.71 1008.13 1008.61 1009.16 1010.10 1010.24 1010.75 1011.45 1012.06 1012.58 1013.09 1013.52 1013.74
1015.93 1015.59 1015.20 1014.78 1014.43 1014.04 1013.47 1012.74 1012.25 1011.94 1011.80 1011.75 1011.59 1011.29 1009.58 1007.22 1007.03 1007.08 1007.13 1007.34 1007.59 1007.71 1007.85 1008.00 1007.97 1008.32 1008.74 1008.97 1008.82 1008.99 1009.07 1008.93 1008.39 1007.92 1008.09 1008.77 1009.78 1010.16 1010.91 1011.35 1011.85 1012.27 1012.59 1013.01 1013.30
1015.72 1015.37 1014.99 1014.58 1014.13 1013.65 1013.14 1012.60 1011.83 1011.59 1011.54 1011.59 1011.63 1010.99 1008.68 1007.04 1007.10 1006.79 1006.84 1007.28 1007.79 1008.10 1007.96 1007.91 1008.16 1008.97 1009.14 1009.53 1009.77 1009.81 1009.64 1009.37 1008.83 1008.46 1008.71 1008.98 1009.63 1009.76 1010.65 1011.22 1011.61 1011.85 1012.06 1012.41 1012.91
1015.57 1015.07 1014.64 1014.28 1013.93 1013.48 1012.87 1012.17 1011.76 1011.65 1011.73 1011.64 1011.21 1010.97 1008.04 1006.69 1006.37 1006.59 1006.84 1007.22 1007.95 1008.33 1008.44 1008.45 1009.00 1009.56 1009.92 1010.06 1010.36 1010.18 1010.09 1009.69 1009.35 1009.17 1009.24 1009.55 1009.78 1010.06 1010.33 1010.72 1010.90 1011.34 1011.66 1011.89 1012.11
1015.48 1015.01 1014.48 1014.00 1013.70 1013.47 1013.12 1012.39 1012.43 1011.99 1011.39 1009.77 1009.34 1008.65 1007.13 1006.21 1005.97 1006.50 1006.70 1007.30 1007.83 1008.63 1009.05 1009.14 1009.75 1009.94 1009.65 1010.10 1009.99 1010.15 1010.25 1009.86 1009.40 1009.06 1009.38 1009.74 1010.05 1010.22 1010.27 1010.57 1010.68 1010.85 1011.07 1011.16 1011.13
1015.22 1014.73 1014.21 1013.79 1013.31 1012.95 1013.16 1012.25 1010.78 1010.54 1010.07 1008.52 1008.51 1007.99 1007.14 1006.56 1006.37 1006.49 1006.56 1007.29 1007.88 1008.71 1009.15 1009.83 1009.49 1009.10 1009.39 1009.76 1009.99 1010.29 1010.30 1009.84 1009.44 1009.44 1009.93 1010.30 1010.37 1010.30 1010.24 1009.70 1009.67 1009.83 1010.19 1010.28 1010.66
1014.79 1014.35 1013.83 1013.34 1012.98 1012.98 1012.60 1011.02 1010.27 1010.12 1009.99 1007.88 1007.50 1007.25 1006.59 1006.62 1006.57 1006.10 1006.22 1006.73 1007.59 1008.60 1008.96 1009.11 1008.67 1008.46 1009.08 1009.33 1009.72 1009.91 1010.17 1009.86 1010.09 1010.09 1010.54 1010.85 1010.73 1009.97 1009.42 1009.47 1009.16 1008.85 1008.96 1009.35 1009.55
1014.50 1014.15 1013.64 1013.06 1012.99 1012.90 1011.75 1010.12 1010.09 1010.11 1009.78 1007.57 1006.76 1005.68 1005.91 1005.96 1005.99 1005.29 1005.57 1006.06 1007.19 1007.88 1008.75 1008.90 1008.35 1008.23 1008.53 1008.81 1009.27 1009.67 1009.42 1009.82 1010.42 1010.92 1011.46 1011.58 1011.34 1010.03 1009.14 1008.88 1008.71 1008.31 1008.39 1008.55 1008.94
1014.11 1013.88 1013.64 1013.62 1013.33 1012.56 1010.60 1010.12 1009.95 1009.92 1008.95 1006.33 1005.72 1004.93 1005.24 1005.36 1005.05 1005.21 1005.05 1005.49 1006.47 1007.25 1008.10 1007.91 1007.87 1008.03 1008.27 1008.38 1008.79 1009.62 1009.61 1010.41 1010.81 1011.87 1012.48 1012.51 1012.64 1009.89 1009.60 1009.04 1007.90 1007.66 1007.80 1007.88 1008.32
1013.59 1013.42 1013.31 1013.36 1013.27 1010.73 1010.26 1010.09 1009.96 1009.95 1007.63 1005.51 1004.96 1005.02 1005.41 1005.13 1004.87 1005.14 1005.27 1005.51 1006.16 1007.14 1007.61 1007.65 1007.23 1007.33 1007.62 1008.16 1008.37 1009.31 1010.04 1011.34 1012.40 1012.79 1013.67 1013.22 1012.95 1010.42 1009.47 1008.37 1007.19 1007.03 1007.28 1007.33 1007.81
1012.99 1012.74 1013.00 1012.62 1011.31 1010.19 1010.22 1010.15 1010.39 1008.99 1006.50 1005.51 1004.92 1004.91 1005.11 1005.31 1005.23 1005.05 1005.63 1006.26 1006.77 1007.71 1008.12 1007.85 1007.55 1007.32 1007.38 1008.17 1008.82 1009.86 1011.19 1012.74 1013.78 1014.29 1014.27 1013.73 1013.27 1010.02 1008.02 1007.25 1006.72 1006.30 1006.57 1006.72 1007.23
1012.02 1011.48 1011.01 1010.83 1010.22 1010.40 1010.34 1010.21 1009.85 1007.77 1006.42 1005.09 1004.65 1004.96 1005.16 1005.06 1005.28 1005.41 1006.01 1006.75 1006.89 1007.30 1008.45 1008.41 1007.98 1007.46 1007.58 1008.13 1009.19 1010.35 1011.42 1012.70 1013.66 1014.60 1014.31 1013.77 1012.08 1008.38 1006.73 1006.39 1005.98 1005.80 1005.87 1006.56 1007.19
1011.19 1010.97 1010.85 1009.33 1010.06 1010.37 1010.17 1010.01 1008.65 1007.42 1006.07 1005.32 1004.85 1004.98 1005.13 1004.76 1005.06 1005.49 1005.99 1006.46 1006.61 1006.97 1007.74 1008.30 1007.98 1007.25 1007.11 1007.61 1008.35 1010.40 1011.46 1011.74 1013.04 1014.29 1014.43 1012.77 1010.55 1007.94 1006.01 1005.84 1005.82 1005.52 1005.78 1006.10 1006.59
1011.54 1011.03 1009.95 1009.03 1009.53 1009.86 1009.80 1009.38 1008.39 1007.10 1005.97 1005.36 1005.04 1004.60 1004.74 1004.83 1005.07 1005.54 1006.06 1005.80 1006.15 1006.36 1006.43 1007.50 1007.87 1007.32 1006.94 1007.51 1008.49 1009.05 1010.15 1011.74 1012.90 1013.88 1014.02 1012.41 1010.91 1008.70 1006.57 1005.60 1005.42 1005.46 1005.32 1005.84 1006.13
1011.45 1010.89 1009.66 1009.28 1009.64 1009.65 1009.76 1009.18 1007.90 1006.60 1006.05 1005.36 1005.08 1004.78 1004.52 1004.65 1004.99 1005.41 1005.63 1005.28 1005.19 1006.06 1006.59 1007.59 1008.06 1008.04 1007.48 1007.55 1008.04 1009.25 1010.09 1011.25 1012.14 1012.96 1012.99 1012.23 1010.01 1006.72 1005.91 1005.23 1005.14 1004.69 1004.56 1005.10 1005.58
1011.88 1011.00 1009.75 1009.77 1009.83 1010.36 1009.61 1008.43 1007.19 1006.30 1005.59 1005.26 1004.91 1004.77 1004.48 1004.38 1004.74 1005.11 1004.96 1004.31 1003.84 1004.85 1006.57 1006.79 1007.79 1008.51 1007.79 1007.13 1007.26 1007.37 1008.57 1009.85 1011.47 1012.42 1012.46 1011.65 1008.31 1005.84 1005.45 1004.78 1004.60 1004.47 1004.58 1004.70 1004.98
1012.55 1011.55 1009.79 1009.64 1009.95 1010.15 1009.13 1008.02 1007.04 1006.32 1005.77 1005.36 1004.98 1004.54 1004.24 1004.22 1004.46 1004.42 1004.33 1003.81 1004.05 1004.48 1005.02 1006.10 1007.38 1008.46 1008.04 1007.79 1007.29 1007.52 1007.98 1008.78 1009.85 1010.74 1010.99 1010.60 1007.38 1005.07 1004.89 1004.58 1004.38 1004.31 1004.61 1004.50 1004.79
1012.74 1012.00 1010.72 1010.10 1009.99 1009.51 1008.94 1008.08 1007.15 1006.12 1005.82 1005.34 1005.05 1004.67 1004.57 1004.46 1004.42 1004.45 1004.19 1003.92 1004.10 1004.54 1004.44 1004.94 1006.67 1006.99 1007.24 1006.73 1006.53 1007.25 1007.15 1007.66 1008.60 1009.86 1009.59 1008.59 1006.48 1004.72 1004.44 1004.48 1004.26 1004.20 1003.96 1004.23 1004.57
1012.95 1012.54 1011.84 1011.05 1010.55 1009.69 1008.85 1008.31 1007.47 1006.67 1006.04 1005.65 1005.55 1005.29 1005.08 1005.18 1005.06 1004.96 1004.74 1004.62 1004.53 1004.62 1004.82 1005.19 1006.30 1006.36 1005.68 1005.46 1005.65 1005.68 1005.82 1006.51 1007.33 1007.01 1007.81 1006.14 1006.35 1004.45 1003.58 1003.63 1003.00 1002.86 1003.12 1003.88 1004.10
1013.58 1013.31 1012.14 1011.53 1010.69 1009.88 1009.24 1008.66 1007.90 1007.28 1006.79 1006.20 1005.98 1005.79 1005.50 1005.64 1005.49 1005.38 1005.34 1005.28 1005.47 1005.44 1005.63 1005.97 1006.55 1006.71 1006.15 1005.60 1005.40 1005.29 1005.14 1005.47 1005.91 1006.15 1006.14 1005.55 1005.09 1003.63 1002.72 1002.77 1002.51 1002.41 1003.05 1003.66 1003.68
1013.72 1013.28 1012.90 1012.29 1011.33 1010.44 1009.74 1008.98 1008.25 1007.80 1007.04 1006.68 1006.52 1006.49 1006.45 1006.43 1006.09 1005.68 1005.65 1005.69 1005.89 1006.17 1006.57 1006.86 1007.15 1007.68 1007.08 1005.92 1005.65 1005.49 1004.40 1004.48 1004.47 1004.36 1004.26 1004.37 1003.22 1002.97 1002.79 1002.71 1002.10 1002.05 1002.70 1002.61 1002.98
Wind_Speed
14 14 14 14 14 14 14 13 13 13 14 15 15 14 14 13 11 1 5 8 8 15 12 6 3 5 3 3 2 1 3 2 1 4 5 9 6 3 4 6 3 3 5 10 16
15 15 15 14 14 14 14 14 13 13 14 16 15 13 13 13 1 6 10 9 13 16 8 8 6 5 4 2 1 3 3 2 3 6 6 6 7 7 4 3 4 9 12 17 15
15 16 15 15 14 14 15 14 14 14 14 16 15 14 12 8 2 6 8 13 19 13 6 2 6 2 4 1 1 1 2 2 3 1 11 10 4 2 10 3 7 12 18 17 16
15 16 16 16 15 15 15 15 15 14 15 15 15 14 14 2 4 2 9 13 16 7 6 4 2 1 3 3 3 0 4 3 3 8 6 11 8 4 3 4 9 17 17 17 16
15 15 16 16 16 16 15 15 15 15 15 15 15 13 3 1 8 1 10 13 10 4 6 4 3 3 2 2 2 3 3 7 5 15 8 8 5 5 3 8 14 16 13 13 12
16 16 16 16 17 17 17 16 16 15 14 13 13 11 1 3 5 3 13 11 6 5 7 4 5 4 3 2 2 1 5 6 10 3 10 7 4 4 2 12 13 15 15 12 13
16 16 16 16 16 17 18 19 18 16 13 10 9 3 1 12 4 5 6 4 3 3 6 0 4 2 2 2 3 3 6 3 5 5 3 5 1 4 8 12 14 14 11 10 12
16 16 17 17 17 17 18 20 19 15 9 5 4 2 8 2 2 4 4 3 3 4 2 4 3 4 3 4 4 4 4 3 4 8 8 9 7 2 13 15 14 13 12 12 14
17 17 17 17 18 18 18 20 15 4 2 6 2 1 9 1 3 5 3 6 5 3 5 3 3 3 3 3 4 5 2 1 3 4 3 3 6 6 13 12 12 13 13 12 10
17 18 18 18 16 16 20 12 4 5 1 3 2 2 4 5 4 6 2 6 5 5 2 3 4 3 3 4 1 2 1 3 3 2 1 2 5 5 14 13 14 13 12 12 13
17 17 17 17 16 12 10 2 4 3 2 9 7 4 4 5 4 2 6 5 5 5 5 3 2 6 9 7 4 2 1 4 3 3 1 5 4 8 11 12 12 12 13 13 16
17 17 17 17 16 13 3 4 4 2 6 11 5 8 4 2 6 5 8 7 5 5 5 5 10 8 6 4 5 3 3 8 4 1 3 4 8 8 9 15 17 17 16 17 14
18 18 18 17 19 2 2 6 2 4 2 7 6 6 5 8 7 6 11 6 6 6 8 8 6 8 5 5 4 3 4 4 4 2 2 3 7 6 7 6 9 16 16 18 19
19 17 17 23 1 3 5 2 4 4 5 7 3 8 5 8 4 7 8 8 3 11 8 5 6 5 2 5 7 4 6 8 5 2 3 0 7 7 6 8 11 13 15 16 15
19 17 13 10 5 3 0 6 2 3 3 2 3 2 1 10 6 5 5 5 9 6 7 8 7 4 5 4 5 4 3 1 3 4 4 1 2 8 2 7 13 14 14 13 14
20 16 15 1 3 8 6 5 3 7 7 1 5 5 4 1 2 4 5 4 5 5 1 7 2 6 5 2 3 8 5 8 6 3 3 2 4 10 4 7 6 7 12 15 14
21 17 9 2 5 3 4 4 6 4 4 2 4 5 5 6 3 4 8 8 8 7 5 2 3 2 4 5 5 6 6 4 5 5 7 3 1 13 8 8 7 9 14 14 13
25 21 5 8 4 3 2 5 3 4 6 4 3 3 7 6 5 3 7 6 1 6 5 7 7 8 4 7 7 3 6 7 6 3 6 0 7 10 8 5 7 7 12 11 10
21 1 2 5 10 1 5 3 8 6 2 5 3 5 2 3 6 3 7 11 9 8 10 7 6 1 4 5 12 4 5 3 7 3 3 4 9 11 7 5 8 9 8 10 12
3 4 4 3 10 3 6 6 4 4 4 2 2 2 7 8 4 7 7 6 7 11 4 7 1 4 5 5 4 7 8 3 3 3 4 5 7 9 7 9 9 8 11 9 7
2 2 4 3 2 5 5 7 5 7 4 3 2 3 2 6 7 7 8 4 8 7 5 6 5 5 4 5 9 3 2 4 5 4 6 1 9 9 10 9 9 12 10 8 11
3 3 2 2 5 1 5 6 4 3 2 4 2 5 3 4 5 6 10 7 9 12 12 10 7 5 10 2 2 6 7 7 6 5 2 4 12 5 8 11 8 9 7 5 8
2 2 3 3 4 1 3 2 2 2 4 2 4 6 4 1 3 5 6 1 2 8 13 10 3 2 9 8 5 3 6 4 5 4 6 6 10 2 4 7 6 6 7 6 6
2 2 3 4 0 6 4 3 3 3 5 5 3 1 0 2 3 4 0 1 5 1 4 7 5 10 13 11 7 6 8 7 8 4 5 8 14 17 9 8 7 9 8 8 8
2 1 1 3 2 2 2 1 1 3 2 2 1 1 4 4 2 2 0 4 2 8 4 6 8 7 10 8 8 6 7 11 9 12 8 15 9 16 13 12 15 14 8 8 9
2 3 4 0 2 4 2 2 2 3 1 2 4 3 3 4 4 7 2 1 1 5 4 4 1 4 6 6 9 6 6 9 6 3 8 6 11 9 11 8 9 10 6 8 9
2 2 3 3 2 4 4 3 4 1 2 3 3 3 6 3 2 2 3 1 1 1 2 2 5 4 7 4 8 3 10 10 6 5 8 7 13 4 4 8 11 8 9 9 7
Wind_Direction
352 352 351 351 350 344 340 340 335 332 326 323 328 335 332 330 316 214 236 211 158 151 123 149 129 124 98 80 32 84 68 83 95 150 165 154 133 150 88 120 69 0 132 130 138
351 351 351 348 348 344 339 337 334 329 324 322 325 332 330 329 259 225 250 178 145 153 135 159 155 141 70 79 18 82 82 32 308 170 175 155 134 143 130 129 59 81 95 122 138
349 348 347 345 346 343 337 334 331 326 321 319 322 329 325 321 320 244 192 165 157 155 153 109 112 129 79 28 343 186 136 45 9 75 141 136 125 98 130 227 190 166 146 147 154
350 345 343 343 344 341 334 331 328 323 320 318 320 326 318 261 175 295 179 164 159 161 118 121 114 80 105 151 206 276 244 228 253 145 137 156 122 102 167 264 150 155 153 157 169
348 344 342 343 340 337 331 327 323 319 317 316 318 328 333 357 253 250 180 146 154 134 138 173 130 164 126 169 177 63 307 320 305 151 157 140 148 156 240 107 126 142 158 165 174
346 344 343 341 338 333 327 323 318 312 309 311 312 323 343 251 311 60 140 144 174 177 160 189 176 200 84 52 50 231 269 298 64 84 153 149 169 138 115 135 141 159 173 177 184
344 341 341 339 336 330 325 321 314 307 304 300 300 302 75 238 355 114 103 157 178 129 139 187 166 133 157 1 322 323 10 16 45 108 106 84 347 242 156 154 159 177 183 190 195
340 338 337 336 334 329 323 316 310 303 294 270 264 296 247 286 113 133 166 81 103 344 42 102 94 88 39 303 357 38 51 55 314 139 189 130 255 205 162 162 180 185 190 196 205
337 335 335 334 333 329 323 316 309 304 123 151 92 57 267 342 160 210 190 132 77 6 330 120 60 80 3 73 9 357 118 191 311 349 81 141 242 196 174 185 189 196 197 206 205
332 330 331 331 331 330 326 320 60 101 152 219 263 27 270 220 179 153 199 122 127 101 27 48 55 27 25 73 231 231 208 241 230 279 331 199 249 197 186 191 196 199 205 205 212
329 327 327 327 328 330 346 35 26 346 281 191 197 237 296 292 131 136 148 154 105 96 151 184 114 207 227 193 215 80 294 280 222 224 174 229 230 198 197 210 205 205 205 212 216
327 327 325 326 323 316 171 173 174 169 300 229 216 282 266 4 8 104 127 137 129 163 135 65 235 215 235 213 227 206 256 272 279 180 167 12 275 242 197 217 217 208 209 211 212
327 328 327 327 324 120 213 227 16 4 172 288 181 192 213 140 216 236 147 150 138 142 186 164 238 179 189 233 237 235 214 259 240 96 86 354 285 221 234 216 214 226 220 213 204
324 328 331 331 120 318 253 208 337 188 53 271 233 261 150 141 234 205 176 140 143 182 154 217 228 247 202 261 149 267 214 245 256 88 247 59 282 269 221 231 222 217 211 211 210
321 325 326 332 296 235 328 346 318 67 351 205 185 42 282 158 158 234 196 52 161 164 124 227 167 162 199 239 153 241 17 183 113 85 358 350 58 266 42 271 239 220 212 203 197
316 320 324 95 216 244 318 324 73 46 252 57 131 145 134 288 193 117 123 75 159 122 99 210 217 154 146 132 164 166 77 46 28 47 353 345 143 282 226 223 268 207 207 205 198
313 309 293 233 228 126 309 76 52 153 312 158 157 153 162 174 186 121 149 168 155 140 207 315 213 136 129 90 37 73 62 343 343 13 228 343 338 246 265 245 236 223 201 203 194
318 308 227 205 241 259 29 60 179 232 250 306 60 83 164 155 214 121 115 149 166 115 139 166 258 162 172 161 177 190 148 163 206 216 270 144 244 253 219 255 231 217 220 212 191
322 330 219 240 204 227 91 107 207 211 284 333 341 126 200 186 155 146 161 185 178 167 170 141 247 217 195 159 142 196 190 181 105 15 30 249 291 294 264 277 230 220 188 202 203
319 332 260 87 154 101 87 220 231 223 321 30 55 167 173 182 136 144 178 194 191 187 165 202 163 217 210 105 56 168 156 85 13 184 268 275 278 240 283 255 230 228 214 209 197
27 36 331 111 115 56 169 220 247 244 226 31 324 306 207 168 164 172 192 249 194 188 132 128 118 278 75 189 167 154 201 63 123 135 186 296 267 220 242 248 230 231 227 189 200
345 66 340 118 72 16 156 197 222 271 345 284 200 226 229 175 148 175 189 219 172 147 164 200 142 182 205 183 262 168 177 150 138 236 214 149 270 231 243 258 204 249 241 228 214
41 273 352 44 135 270 271 267 250 275 243 244 259 198 208 239 99 172 178 335 124 159 170 174 198 83 341 357 358 196 201 150 109 84 203 144 264 248 303 275 231 226 237 230 172
54 78 345 49 282 143 156 220 242 237 248 200 268 82 219 242 44 197 213 356 1 212 215 119 137 166 215 203 161 183 205 176 139 137 186 222 265 282 268 256 234 234 229 221 196
34 265 265 203 276 125 79 87 203 314 249 37 358 318 199 154 78 192 287 341 15 334 71 112 191 171 227 184 170 208 185 166 178 218 168 252 202 259 273 229 235 224 214 201 185
47 34 357 99 319 140 91 169 166 301 263 328 110 346 142 134 170 193 137 130 165 332 51 1 275 176 273 147 194 206 211 179 214 157 258 274 284 260 270 254 253 224 197 207 202
319 319 112 322 10 107 191 188 182 183 238 61 202 88 61 38 253 230 213 213 183 124 19 80 122 97 255 170 131 292 217 199 205 192 175 178 230 175 262 249 245 237 199 222 200